Tracking 31030 objects as of 16-Jul-2025
HD Live streaming from Space Station
objects crossing your sky now

CZ-6A DEB

Track CZ-6A DEB now!
10-day predictions


NORAD ID: 56634
Int'l Code: 2022-151AFJ
Perigee: 819.6 km
Apogee: 835.6 km
Inclination: 98.8 °
Period: 101.3 minutes
Semi major axis: 7198 km
RCS: Unknown
Launch date: November 11, 2022
Source: People's Republic of China (PRC)
Launch site: Taiyaun Space Center, China (TSC)

Note: This is SATELLITE DEBRIS
Your satellite tracking list
Your tracking list is empty




NASA's NSSDC Master Catalog

Two Line Element Set (TLE):
1 56634U 22151AFJ 25194.98879500  .00000133  00000-0  81349-4 0  9998
2 56634  98.8025 214.6786 0011137 286.9472  73.0484 14.21456584115578
Source of the keplerian elements: AFSPC